Weather reports worldwide

Advertisment
Shawbury, United Kingdom (3414): temperature & dewpoint: 11.01.2021 21:00:00 - 17.01.2021 21:00:00 (GMT)Shawbury, United Kingdom (3414): temperature -20cm & temperature -100cm: 11.01.2021 21:00:00 - 17.01.2021 21:00:00 (GMT)Shawbury, United Kingdom (3414): wind speed & gusts: 11.01.2021 21:00:00 - 17.01.2021 21:00:00 (GMT)Shawbury, United Kingdom (3414): wind direction: 11.01.2021 21:00:00 - 17.01.2021 21:00:00 (GMT)Shawbury, United Kingdom (3414): reduced air pressure: 11.01.2021 21:00:00 - 17.01.2021 21:00:00 (GMT)Shawbury, United Kingdom (3414): visibility: 11.01.2021 21:00:00 - 17.01.2021 21:00:00 (GMT)Shawbury, United Kingdom (3414): sunshine duration: 11.01.2021 21:00:00 - 17.01.2021 21:00:00 (GMT)Shawbury, United Kingdom (3414): precipitation: 11.01.2021 21:00:00 - 17.01.2021 21:00:00 (GMT)
Date & Time tt [°C] td [°C] tt -20cm [°C] tt -100cm [°C] ff [km/h] ff [kn] fx [km/h] fx [kn] dd ppp [hPa] vv [km] sd [min] rr [mm]
17.01.2021 21:00:00 3,4 2,0 - - 9 5 - - WSW 1025,5 35 0 0,0
17.01.2021 20:00:00 2,4 1,0 - - 15 8 - - W 1025,7 10 0 0,0
17.01.2021 19:00:00 4,5 2,1 - - 15 8 - - WSW 1025,8 35 0 0,0
17.01.2021 18:00:00 4,3 1,7 - - 13 7 - - WSW 1025,7 30 0 0,0
17.01.2021 17:00:00 5,2 2,4 - - 11 6 - - WSW 1026,0 40 0 0,0
17.01.2021 16:00:00 4,9 2,3 - - 9 5 - - W 1025,7 40 0 0,0
17.01.2021 15:00:00 6,6 2,6 - - 13 7 - - W 1025,2 40 0 0,0
17.01.2021 14:00:00 6,9 3,0 - - 11 6 - - W 1025,1 40 0 0,0
17.01.2021 13:00:00 6,4 2,8 - - 13 7 - - W 1025,2 30 0 0,0
17.01.2021 12:00:00 6,1 2,4 - - 15 8 - - W 1025,2 10 0 0,0
17.01.2021 11:00:00 5,7 1,9 - - 21 11 - - W 1025,3 40 6 0,0
17.01.2021 10:00:00 5,2 1,6 - - 22 12 - - W 1024,4 10 18 0,0
17.01.2021 09:00:00 3,9 1,1 5,2 6,2 21 11 - - W 1023,9 45 0 0,0
17.01.2021 08:00:00 4,1 1,1 - - 22 12 - - W 1022,7 55 0 0,0
17.01.2021 07:00:00 3,1 0,9 - - 15 8 - - W 1022,1 60 0 0,0
17.01.2021 06:00:00 4,8 1,8 - - 15 8 - - WNW 1021,2 10 0 0,2
17.01.2021 05:00:00 4,7 1,4 - - 16 9 - - WNW 1020,8 - 0 0,0
17.01.2021 04:00:00 4,8 1,5 - - 15 8 - - W 1020,4 - 0 0,0
17.01.2021 03:00:00 5,0 2,1 - - 16 9 - - NW 1019,8 55 0 0,0
17.01.2021 02:00:00 5,7 2,2 - - 21 11 - - W 1018,7 40 0 0,0
17.01.2021 01:00:00 5,2 2,2 - - 15 8 - - W 1018,6 35 0 0,0
17.01.2021 00:00:00 5,6 2,2 - - 13 7 - - W 1018,8 30 - 0,0
16.01.2021 23:00:00 4,6 1,9 - - 13 7 - - WSW 1018,5 30 0 0,0
16.01.2021 22:00:00 5,3 2,0 - - 9 5 - - W 1018,4 30 0 0,0
16.01.2021 21:00:00 5,6 2,1 - - 15 8 - - W 1017,9 30 0 0,0
16.01.2021 20:00:00 4,2 1,1 - - 15 8 - - W 1017,8 29 0 0,0
16.01.2021 19:00:00 6,8 2,3 - - 16 9 - - W 1017,8 27 0 0,0
16.01.2021 18:00:00 7,6 4,0 - - 15 8 - - W 1017,0 30 0 0,0
16.01.2021 17:00:00 7,5 4,1 - - 15 8 - - W 1016,4 35 0 0,0
16.01.2021 16:00:00 8,3 4,5 - - 9 5 - - W 1015,8 35 0 0,0
16.01.2021 15:00:00 8,5 4,7 - - 18 10 - - W 1015,1 30 0 0,0
16.01.2021 14:00:00 8,8 4,9 - - 21 11 - - W 1014,9 30 12 0,0
16.01.2021 13:00:00 9,2 5,3 - - 22 12 - - W 1014,9 35 42 0,0
16.01.2021 12:00:00 8,9 5,0 - - 15 8 - - W 1015,0 35 54 0,0
16.01.2021 11:00:00 8,3 5,5 - - 11 6 - - W 1015,1 30 48 0,0
16.01.2021 10:00:00 6,6 6,2 - - 13 7 - - SW 1014,6 - 0 0,0
16.01.2021 09:00:00 5,8 5,0 5,0 6,2 11 6 - - SSW 1014,1 - 0 0,0
16.01.2021 08:00:00 5,6 4,6 - - 18 10 - - S 1013,6 10 0 0,0
16.01.2021 07:00:00 4,8 3,8 - - 24 13 - - S 1013,8 28 0 0,0
16.01.2021 06:00:00 4,6 3,4 - - 31 17 46 25 S 1014,9 10 0 0,2
16.01.2021 05:00:00 4,7 3,1 - - 31 17 48 26 S 1016,0 40 0 0,0
16.01.2021 04:00:00 4,0 2,6 - - 31 17 46 25 S 1017,5 17 0 0,8
16.01.2021 03:00:00 3,4 2,2 - - 24 13 - - S 1019,6 8 0 0,8
16.01.2021 02:00:00 3,2 1,6 - - 24 13 - - S 1020,8 6 0 0,0
16.01.2021 01:00:00 2,9 0,8 - - 22 12 - - SSE 1022,5 16 0 0,0
16.01.2021 00:00:00 2,3 0,4 - - 24 13 - - S 1024,1 14 - 0,0
15.01.2021 23:00:00 1,5 0,0 - - 13 7 - - SSE 1025,4 13 0 0,0
15.01.2021 22:00:00 0,9 -0,6 - - 15 8 - - SSE 1026,1 11 0 0,0
15.01.2021 21:00:00 0,6 -0,9 - - 16 9 - - SSE 1027,2 11 0 0,0
15.01.2021 20:00:00 0,4 -1,2 - - 18 10 - - S 1028,3 11 0 0,0
15.01.2021 19:00:00 0,2 -1,1 - - 15 8 - - SSE 1028,5 10 0 0,0
15.01.2021 18:00:00 0,5 -1,0 - - 15 8 - - SSE 1028,7 12 0 0,0
15.01.2021 17:00:00 0,6 -1,0 - - 13 7 - - SSE 1029,1 12 0 0,0
15.01.2021 16:00:00 1,0 -0,7 - - 15 8 - - SSE 1029,5 13 0 0,0
15.01.2021 15:00:00 1,3 -0,3 - - 15 8 - - SSE 1029,8 10 0 0,0
15.01.2021 14:00:00 0,8 -0,6 - - 15 8 - - S 1030,7 10 0 0,0
15.01.2021 13:00:00 0,7 -0,5 - - 13 7 - - S 1031,1 8 0 0,0
15.01.2021 12:00:00 0,3 -0,4 - - 11 6 - - S 1031,7 5 0 0,0
15.01.2021 11:00:00 0,1 -0,3 - - 11 6 - - SSE 1031,9 3,0 0 0,0
15.01.2021 10:00:00 -0,3 -0,7 - - 9 5 - - SSE 1031,7 2,0 0 0,0
15.01.2021 09:00:00 0,0 -0,6 5,2 6,2 8 4 - - ESE 1031,3 3,0 0 0,0
15.01.2021 08:00:00 0,3 -0,5 - - 9 5 - - ESE 1030,6 7 0 0,0
15.01.2021 07:00:00 0,4 -0,5 - - 8 4 - - SE 1030,0 8 0 0,0
15.01.2021 06:00:00 0,7 -0,2 - - 4 2 - - ESE 1029,7 8 0 0,0
15.01.2021 05:00:00 0,8 0,4 - - 4 2 - - SE 1029,7 8 0 0,0
15.01.2021 04:00:00 0,7 0,4 - - 2 1 - - SE 1029,2 6 0 0,0
15.01.2021 03:00:00 0,6 0,4 - - 2 1 - - NE 1028,9 9 0 0,0
15.01.2021 02:00:00 -0,7 -1,0 - - 4 2 - - NNE 1028,3 4,9 0 0,0
15.01.2021 01:00:00 -1,3 -1,7 - - 8 4 - - W 1027,8 3,0 0 0,0
15.01.2021 00:00:00 -0,8 -1,8 - - 2 1 - - NNE 1027,5 6 - 0,0
14.01.2021 23:00:00 1,6 0,7 - - 5 3 - - E 1026,7 14 0 0,0
14.01.2021 22:00:00 1,8 1,0 - - 9 5 - - ENE 1025,9 14 0 0,0
14.01.2021 21:00:00 1,9 1,0 - - 8 4 - - NE 1025,3 17 0 0,0
14.01.2021 20:00:00 2,2 1,2 - - 9 5 - - ENE 1024,4 19 0 0,0
14.01.2021 19:00:00 2,2 1,7 - - 5 3 - - NNE 1023,7 13 0 0,0
14.01.2021 18:00:00 2,0 1,5 - - 8 4 - - N 1022,6 10 0 0,2
14.01.2021 17:00:00 2,0 1,6 - - 8 4 - - NNE 1021,6 4,3 0 0,2
14.01.2021 16:00:00 2,7 2,3 - - 11 6 - - NE 1020,3 3,3 0 0,0
14.01.2021 15:00:00 3,8 2,9 - - 15 8 - - N 1019,0 3,3 0 0,2
14.01.2021 14:00:00 4,4 3,3 - - 13 7 - - N 1018,2 8 0 0,0
14.01.2021 13:00:00 4,8 3,6 - - 18 10 - - N 1017,4 22 0 0,0
14.01.2021 12:00:00 4,6 4,0 - - 26 14 - - NNW 1016,8 15 0 0,0
14.01.2021 11:00:00 3,8 3,5 - - 8 4 - - NE 1015,9 14 0 0,0
14.01.2021 10:00:00 3,6 3,3 - - 8 4 - - ENE 1014,7 8 0 0,0
14.01.2021 09:00:00 3,6 3,3 5,5 6,0 9 5 - - ESE 1013,7 4,0 0 0,4
14.01.2021 08:00:00 3,4 3,2 - - 9 5 - - E 1013,2 7 0 1,4
14.01.2021 07:00:00 3,4 3,1 - - 11 6 - - E 1012,6 4,0 0 1,4
14.01.2021 06:00:00 3,3 3,0 - - 9 5 - - E 1012,6 3,6 0 0,6
14.01.2021 05:00:00 3,7 3,3 - - 9 5 - - E 1012,7 6 0 0,0
14.01.2021 04:00:00 3,8 3,3 - - 11 6 - - E 1013,3 7 0 0,0
14.01.2021 03:00:00 4,5 4,1 - - 15 8 - - E 1013,5 6 0 0,0
14.01.2021 02:00:00 5,7 5,1 - - 13 7 - - E 1013,8 6 0 0,0
14.01.2021 01:00:00 10,0 8,6 - - 9 5 - - SSW 1014,2 10 0 0,0
14.01.2021 00:00:00 9,9 8,4 - - 8 4 - - SW 1014,7 45 - 0,0
13.01.2021 23:00:00 10,0 8,7 - - 16 9 - - WSW 1015,1 16 0 0,8
13.01.2021 22:00:00 9,7 8,7 - - 13 7 - - WSW 1015,5 11 0 1,8
13.01.2021 21:00:00 9,7 8,2 - - 18 10 - - WSW 1015,5 13 0 0,0
13.01.2021 20:00:00 10,0 8,0 - - 22 12 - - WSW 1015,8 55 0 0,0
13.01.2021 19:00:00 9,7 8,0 - - 21 11 - - WSW 1016,2 55 0 0,0
13.01.2021 18:00:00 9,7 8,0 - - 22 12 - - WSW 1016,1 60 0 0,0
13.01.2021 17:00:00 9,6 8,1 - - 21 11 - - WSW 1016,3 50 0 0,0
13.01.2021 16:00:00 10,4 8,6 - - 15 8 - - W 1016,2 10 0 0,0
13.01.2021 15:00:00 10,4 8,9 - - 13 7 - - W 1015,9 10 0 0,0
13.01.2021 14:00:00 8,5 6,8 - - 8 4 - - E 1016,2 8 0 0,0
13.01.2021 13:00:00 6,6 6,2 - - 5 3 - - SSW 1016,7 5 0 0,0
13.01.2021 12:00:00 5,1 4,9 - - 4 2 - - S 1017,1 3,5 0 0,0
13.01.2021 11:00:00 3,7 3,6 - - 4 2 - - ESE 1017,3 2,0 0 0,2
13.01.2021 10:00:00 3,1 3,0 - - 5 3 - - ENE 1017,3 1,5 0 0,4
13.01.2021 09:00:00 2,8 2,6 4,9 6,0 8 4 - - ENE 1017,3 1,2 0 0,0
13.01.2021 08:00:00 2,7 2,4 - - 8 4 - - E 1017,3 2,5 0 0,4
13.01.2021 07:00:00 2,4 2,1 - - 4 2 - - E 1017,4 1,7 0 0,4
13.01.2021 06:00:00 2,1 1,7 - - 2 1 - - NE 1017,8 1,4 0 0,2
13.01.2021 05:00:00 1,9 1,4 - - 2 1 - - NE 1018,2 3,9 0 0,4
13.01.2021 04:00:00 1,5 1,0 - - 2 1 - - E 1018,8 8 0 0,0
13.01.2021 03:00:00 1,1 0,6 - - 2 1 - - NNE 1019,1 9 0 0,2
13.01.2021 02:00:00 0,6 0,0 - - 2 1 - - NNE 1019,4 9 0 0,0
13.01.2021 01:00:00 0,3 -0,4 - - 2 1 - - SSE 1019,6 9 0 0,0
13.01.2021 00:00:00 0,8 -0,1 - - 4 2 - - SE 1020,3 14 - 0,0
12.01.2021 23:00:00 0,8 -0,4 - - 5 3 - - SW 1020,4 15 0 0,0
12.01.2021 22:00:00 -0,1 -1,1 - - 4 2 - - W 1020,6 14 0 0,0
12.01.2021 21:00:00 0,8 -0,4 - - 4 2 - - S 1019,9 23 0 0,0
12.01.2021 20:00:00 -0,2 -1,0 - - 4 2 - - WSW 1019,8 16 0 0,0
12.01.2021 19:00:00 1,1 -0,3 - - 4 2 - - W 1019,5 29 0 0,0
12.01.2021 18:00:00 1,0 -0,8 - - 8 4 - - NNW 1019,3 35 0 0,0
12.01.2021 17:00:00 1,9 -0,3 - - 5 3 - - WNW 1018,8 45 0 0,0
12.01.2021 16:00:00 3,5 0,5 - - 5 3 - - NW 1017,7 10 0 0,0
12.01.2021 15:00:00 4,7 1,1 - - 9 5 - - NNW 1017,2 10 18 0,0
12.01.2021 14:00:00 5,0 0,8 - - 9 5 - - N 1016,7 10 42 0,0
12.01.2021 13:00:00 5,6 0,3 - - 11 6 - - NNW 1016,0 10 60 0,0
12.01.2021 12:00:00 5,4 2,3 - - 13 7 - - N 1015,7 10 18 0,0
12.01.2021 11:00:00 4,8 3,0 - - 16 9 - - N 1015,1 10 24 0,0
12.01.2021 10:00:00 5,2 3,7 - - 18 10 - - NNW 1014,0 10 0 0,0
12.01.2021 09:00:00 5,7 4,2 5,0 5,9 15 8 - - NNW 1012,8 50 0 0,0
12.01.2021 08:00:00 6,1 5,0 - - 21 11 - - NNW 1011,5 10 0 0,0
12.01.2021 07:00:00 7,3 6,0 - - 15 8 - - WNW 1010,3 - 0 0,0
12.01.2021 06:00:00 7,5 6,1 - - 13 7 - - WNW 1009,5 - 0 0,2
12.01.2021 05:00:00 7,7 6,2 - - 13 7 - - WNW 1009,0 - 0 0,2
12.01.2021 04:00:00 7,8 6,8 - - 13 7 - - NW 1008,8 10 0 1,0
12.01.2021 03:00:00 8,1 7,3 - - 13 7 - - NW 1008,4 5 0 1,8
12.01.2021 02:00:00 8,9 7,8 - - 16 9 - - W 1007,4 16 0 1,6
12.01.2021 01:00:00 9,1 7,7 - - 31 17 46 25 W 1007,5 10 0 0,8
12.01.2021 00:00:00 9,3 7,7 - - 35 19 48 26 WSW 1007,8 27 - 0,0
11.01.2021 23:00:00 9,1 7,6 - - 22 12 - - WSW 1008,2 35 0 0,2
11.01.2021 22:00:00 8,9 7,6 - - 21 11 - - WSW 1008,9 20 0 0,0
11.01.2021 21:00:00 8,9 7,6 - - 18 10 - - SW 1009,3 23 0 0,2

tt = temperature
td = dewpoint
tt -20cm = temperature -20cm
tt -100cm = temperature -100cm
ff = wind speed
fx = gusts
dd = wind direction
ppp = reduced air pressure
vv = visibility
sd = sunshine duration
rr = precipitation

Next stations